Overview Statistics Trail Chart Weather Telemetry Raw packets
 

This is the latest recevied weather packets stored in our database for station/object W7TRD. If no packets are shown the sender has not sent any weather packets the latest 10 day(s).

<< 47 48 49 50 51 52 53 >>
Time Temp. Humidity Pressure Rain* Wind** Luminosity Snow
1788298655 19.44° C 69% 1012.4 hPa 0 mm - 152 W/m² -
1788298355 19.44° C 68% 1012.2 hPa 0 mm - 202 W/m² -
1788298055 19.44° C 69% 1012.2 hPa 0 mm - 189 W/m² -
1788297750 19.44° C 69% 1012.4 hPa 0 mm - 148 W/m² -
1788297445 19.44° C 70% 1012.2 hPa 0 mm - 150 W/m² -
1788297142 19.44° C 69% 1012.4 hPa 0 mm - 175 W/m² -
1788296838 19.44° C 69% 1012.5 hPa 0 mm - 188 W/m² -
1788296533 19.44° C 69% 1012.4 hPa 0 mm - 161 W/m² -
1788296229 19.44° C 69% 1012.4 hPa 0 mm - 132 W/m² -
1788295923 19.44° C 68% 1012.4 hPa 0 mm - 129 W/m² -
1788295642 19.44° C 69% 1012.3 hPa 0 mm - 112 W/m² -
1788295314 19.44° C 69% 1012.4 hPa 0 mm - 121 W/m² -
1788295014 20° C 71% 1012.5 hPa 0 mm - 147 W/m² -
1788294709 20° C 68% 1012.3 hPa 0 mm - 194 W/m² -
1788294409 19.44° C 70% 1012.5 hPa 0 mm - 218 W/m² -
1788294105 18.89° C 71% 1012.5 hPa 0 mm - 264 W/m² -
1788293801 18.89° C 72% 1012.3 hPa 0 mm - 251 W/m² -
1788293500 18.89° C 71% 1012.6 hPa 0 mm - 239 W/m² -
1788293200 19.44° C 70% 1012.5 hPa 0 mm - 263 W/m² -
1788292894 20° C 70% 1012.5 hPa 0 mm - 307 W/m² -
1788292592 20° C 72% 1012.6 hPa 0 mm - 339 W/m² -
1788292292 19.44° C 73% 1012.6 hPa 0 mm - 342 W/m² -
1788291988 18.89° C 73% 1012.7 hPa 0 mm - 308 W/m² -
1788291682 19.44° C 72% 1012.6 hPa 0 mm - 276 W/m² -
1788291379 19.44° C 73% 1012.9 hPa 0 mm - 225 W/m² -

* Rain latest hour (hover to see other rain measurements)
** Current wind speed in m/s (hover to see current wind gust speed)